Location: *
(46.1200°N, 11.2700°E)
Time: 10:13:46
(UTC+00:00)

Cosmos 1777 Rocket - Pass Details

Date: 02 March 2021
Orbit: 759 x 775 km, 74.0° (Epoch: 19 April)

Event Time Altitude Azimuth Distance (km) Brightness Sun altitude
Rises 19:05:23 0° 339° (NNW) 3,249 7.7 -21.9°
Reaches altitude 10° 19:07:47 10° 341° (NNW) 2,315 6.9 -22.3°
Maximum altitude 19:13:02 75° 67° (ENE) 796 3.8 -23.2°
Enters shadow 19:13:57 59° 130° (SE) 880 3.9 -23.3°
